Vertical_Velocity
-1 1 0 -0 -0 -2 -2 -3 -4 -8 8 0 -1 0 1 0 -0 -0 -1 -1 -2 -2 -1 -1 -0 1 1 -1 -1 -1 -3 -1 -2 -2 -2 0 -1 -2 -3 -0 1 0 -1 -1 -1 -1 -1 -1 -1
-2 -1 0 -1 -1 2 -2 -0 6 -0 3 2 4 13 -2 -4 -1 -1 -0 -1 -3 -3 1 1 1 -1 2 3 0 -1 -2 -4 -2 -2 -1 -1 -1 -2 -3 -2 -3 -3 -2 -1 -1 -2 -2 -1 -1
-1 -0 -1 1 -2 -3 -4 1 14 0 3 3 5 4 8 2 -4 -1 -1 1 -4 -6 -0 0 1 -0 1 2 1 -0 0 -0 -3 -1 -2 -2 -1 -2 -1 -2 -2 -2 -2 -2 -2 -1 1 1 1
-0 -1 0 -2 -1 0 7 4 0 -5 7 -0 6 -1 3 -1 -3 -4 -0 -1 -5 -3 0 -0 -1 -0 1 1 1 -1 -1 -0 -1 -1 -2 -3 -1 0 1 1 1 -1 -4 -3 -3 -2 -3 -3 -2
0 -2 -2 -1 -5 2 1 1 2 -11 -8 7 -3 6 -0 -3 -0 -2 -2 -4 -4 -3 -0 0 -1 -0 1 1 1 1 -1 -2 -1 -0 -1 -0 -1 1 0 -2 -1 -1 -1 1 1 -1 -2 -3 -3
-1 1 -3 -1 0 -0 7 0 2 -3 11 2 -3 6 1 -3 -3 0 -3 -3 -3 -0 -2 -1 -1 0 1 1 1 1 1 -1 -3 -1 -0 0 -1 -1 -0 -0 -1 -1 -2 -2 -1 -1 0 1 2
1 0 -3 1 0 2 4 4 -3 -3 7 12 -3 7 3 -4 -5 -2 -1 -4 -1 -1 -1 -1 1 -1 -0 2 2 1 1 -0 -1 -3 0 -0 -0 -0 -1 -1 -1 -1 -1 -1 -1 -0 -1 -1 -1
-2 1 -5 -3 -1 -1 2 5 -2 6 -4 5 4 1 10 1 -4 -8 -3 -3 -2 -3 -0 0 -0 1 0 -0 1 1 0 -0 -1 -0 -3 -1 -1 0 1 0 0 0 1 0 -1 -1 -1 -0 -0
-0 -3 -6 -6 0 2 6 0 3 7 5 -5 3 5 7 11 -2 0 -6 -4 -4 -4 -4 -1 -0 -0 0 1 1 -1 1 -0 -1 -2 -1 -1 -1 -0 0 1 1 1 -0 -2 -2 -2 -2 -1 -1
-0 -3 -1 -3 2 -2 -4 11 -8 -2 -1 -2 4 5 8 9 0 -2 -2 -5 -4 -4 -4 -3 -2 -0 -0 -0 1 1 -1 1 2 0 -1 -0 -1 -1 -1 -1 -0 -0 0 0 -1 -1 -1 -0 -0
-5 -8 3 2 -1 3 -10 9 9 -10 0 -2 1 -10 7 7 3 -4 2 2 -5 -4 -3 -2 -3 -2 -1 -0 -0 0 1 0 0 -0 1 1 0 -1 0 0 0 0 -0 -1 -1 -1 -1 -1 -1
-7 2 -2 4 -1 1 -1 -10 -2 14 -4 5 -3 -3 4 7 3 2 0 0 0 -4 -1 -1 -3 -3 -2 -2 -0 0 1 1 0 1 -0 0 1 -0 -1 -0 0 -1 -1 -0 -1 -2 -2 -2 -1
-4 2 -3 3 1 -2 5 -1 -8 -12 9 -4 0 -1 1 12 17 3 -1 0 -4 1 -2 -0 -1 -3 -3 -1 -2 -1 -1 0 2 0 1 0 1 1 1 -1 -0 -0 -1 -0 -1 -0 -0 -1 -1
-3 -4 -2 6 6 -0 -11 2 -3 7 10 -1 -10 -0 1 9 9 8 1 -0 -2 -1 2 -1 0 0 -2 -2 -0 -0 -1 -0 -1 -1 1 1 -0 0 1 1 0 0 1 -1 -0 -0 -2 -2 -2
0 -12 -2 3 -2 -0 0 -16 -19 18 10 10 -3 -5 -1 -0 7 4 16 8 6 9 4 4 0 -0 1 -0 -1 -1 1 -1 -1 0 -0 0 1 0 0 1 1 1 1 0 -1 -1 -0 -0 -0
-2 2 -3 -2 1 13 2 -51 5 18 5 3 4 1 -5 -1 -6 8 9 7 3 3 4 0 4 1 -0 -0 1 -0 -1 -0 -1 -1 -1 0 1 0 0 0 -0 -0 -1 -0 -0 -0 0 1 -1
-3 -1 0 -6 -1 -2 5 -9 -4 -1 1 5 -1 2 2 2 -7 0 -4 7 6 6 5 3 -0 1 3 2 -1 0 1 -1 0 -2 -2 -2 0 1 1 2 1 1 1 -0 1 1 1 0 1
-7 -8 1 2 -16 -5 -7 -28 3 -2 2 4 4 1 -0 5 1 -0 5 4 10 8 6 2 3 4 2 3 1 -1 -3 -2 -3 -1 -1 -1 -2 -0 -0 1 1 -1 -3 -1 0 2 0 1 2
-0 1 -0 -7 -1 -2 -12 -12 -6 -1 -10 -3 12 -2 2 6 -2 13 2 6 6 15 7 2 1 7 -0 -5 -3 -4 -2 1 -1 -1 1 -1 -1 -1 -2 1 1 -1 -2 2 -1 -3 -2 -1 3
-3 -4 -2 -6 -6 2 -9 -22 -12 -1 -5 2 -0 8 6 6 -1 2 9 3 -2 2 5 10 3 -3 1 -2 4 1 5 4 5 7 2 0 0 1 1 -0 2 2 2 1 3 1 2 0 2
-2 -0 -2 -7 0 -1 -6 -32 -18 3 -4 -3 5 5 14 10 6 -8 0 1 6 -4 -7 -8 3 1 0 2 6 0 2 -3 -4 -7 -7 -2 1 -1 -2 -1 -0 -0 -3 -1 2 -0 -0 1 4
-3 -1 -2 -0 6 -3 2 -21 -23 -5 -19 -10 -2 1 1 12 18 6 4 10 4 -3 6 7 5 2 5 5 -1 -2 -1 3 6 6 6 1 1 -0 -2 -1 0 1 1 -3 4 2 3 -1 3
-8 1 -4 -4 2 3 -15 16 -3 3 -9 -6 8 -5 5 12 15 16 1 4 0 -5 -0 9 8 0 9 8 -2 2 2 -1 8 4 6 -4 1 -1 2 -1 -3 -6 -1 3 -1 -0 3 1 -0
-2 -7 -13 -2 4 6 -7 14 -13 5 -13 -13 -9 14 -3 -1 -3 2 11 7 2 -4 -7 -6 -3 -6 -3 -1 6 -3 -8 4 2 -1 1 -0 -2 3 1 2 -1 6 -0 -2 3 4 -0 4 2
1 -4 -5 -6 -0 -4 7 14 -5 13 30 18 6 6 4 3 -5 2 8 9 2 -1 5 -5 -3 -2 -3 3 2 -0 3 -3 5 5 4 8 8 -0 0 3 2 2 8 7 7 4 3 1 2
0 1 -1 -0 -0 -4 -8 -2 21 10 26 14 12 15 9 -1 -3 -9 3 1 6 12 -9 16 1 -3 0 0 -6 4 15 6 3 14 10 11 6 5 9 4 3 5 3 2 1 2 3 3 -1
-7 -1 1 1 -1 6 -5 -0 28 7 10 -2 -2 8 -5 2 1 2 4 0 -1 1 -2 -3 20 6 2 8 21 13 20 17 -1 22 36 20 7 15 6 3 4 3 -0 -1 2 -1 0 1 5
-3 -4 4 1 0 -1 -4 4 10 -18 -8 -2 -6 1 4 6 3 9 4 5 1 1 3 2 8 13 9 3 -0 7 12 11 20 -28 9 -47 12 6 12 -1 -1 -2 0 -1 -4 -0 3 -1 4
-4 -9 -3 3 1 2 0 8 24 5 8 -12 -17 10 12 3 -3 4 14 -1 7 9 -0 -2 7 0 6 6 10 6 3 17 35 28 7 69 -13 17 16 9 -3 -1 0 1 -3 -3 1 -5 3
-4 -1 -1 0 -4 -1 2 -4 7 -7 1 -4 14 12 -17 -18 -3 4 15 -2 6 9 9 11 4 -1 9 -2 1 9 10 13 7 11 12 -1 -64 73 4 -0 -6 -6 -1 3 -3 -1 1 -3 -2
Height
3162 3163 3164 3163 3167 3164 3162 3164 3162 3162 3162 3159 3157 3158 3159 3156 3155 3158 3154 3154 3155 3155 3155 3157 3159 3160 3163 3164 3165 3167 3168 3170 3171 3172 3173 3175 3176 3177 3179 3180 3181 3182 3183 3183 3183 3184 3185 3185 3185
3161 3162 3163 3164 3165 3164 3165 3164 3164 3163 3162 3161 3160 3158 3156 3156 3155 3155 3155 3155 3156 3156 3157 3159 3160 3162 3164 3166 3167 3168 3170 3171 3172 3173 3175 3176 3178 3180 3181 3183 3184 3185 3185 3186 3186 3187 3187 3188 3189
3161 3162 3163 3163 3163 3164 3165 3165 3166 3166 3165 3164 3164 3162 3158 3157 3156 3156 3157 3157 3156 3157 3159 3160 3162 3164 3166 3167 3169 3170 3171 3173 3173 3175 3177 3178 3179 3182 3183 3185 3186 3187 3187 3188 3189 3189 3190 3191 3191
3160 3161 3162 3161 3162 3164 3164 3164 3164 3165 3166 3166 3165 3164 3159 3158 3158 3158 3158 3158 3157 3159 3160 3162 3163 3165 3167 3169 3171 3172 3172 3174 3175 3177 3179 3180 3181 3182 3184 3186 3187 3188 3189 3189 3190 3191 3192 3193 3193
3158 3159 3159 3158 3161 3163 3164 3165 3163 3164 3164 3165 3165 3164 3160 3158 3159 3159 3159 3159 3159 3160 3162 3163 3164 3166 3168 3170 3172 3173 3174 3175 3177 3178 3180 3182 3183 3184 3185 3187 3188 3189 3189 3190 3190 3191 3193 3194 3195
3156 3156 3156 3155 3158 3161 3163 3163 3162 3160 3163 3164 3165 3165 3162 3160 3160 3160 3160 3160 3160 3162 3164 3164 3165 3167 3169 3171 3173 3175 3176 3176 3178 3179 3180 3183 3184 3186 3187 3188 3189 3190 3191 3192 3192 3192 3193 3194 3196
3153 3154 3153 3154 3155 3158 3162 3161 3159 3158 3159 3162 3164 3165 3163 3161 3160 3161 3161 3161 3162 3163 3165 3166 3167 3167 3170 3172 3173 3175 3177 3179 3179 3180 3181 3183 3185 3187 3188 3189 3190 3192 3192 3193 3194 3195 3196 3197 3198
3151 3151 3150 3152 3152 3155 3158 3160 3159 3158 3158 3162 3162 3164 3163 3161 3160 3161 3161 3161 3162 3163 3165 3166 3168 3169 3170 3172 3174 3175 3177 3179 3181 3182 3183 3184 3185 3187 3189 3191 3192 3193 3194 3195 3196 3197 3198 3198 3199
3147 3148 3148 3150 3151 3151 3156 3157 3157 3155 3157 3159 3160 3163 3163 3161 3160 3159 3160 3161 3161 3162 3164 3166 3168 3170 3171 3172 3174 3175 3177 3178 3180 3182 3184 3185 3187 3188 3190 3191 3193 3194 3195 3196 3197 3198 3199 3200 3201
3143 3143 3145 3148 3149 3147 3152 3153 3155 3156 3155 3156 3157 3159 3161 3160 3159 3159 3159 3160 3160 3161 3163 3165 3167 3169 3171 3172 3174 3176 3177 3178 3180 3181 3184 3185 3187 3188 3190 3191 3192 3194 3195 3196 3197 3198 3199 3200 3202
3138 3140 3141 3143 3146 3144 3144 3148 3150 3152 3154 3153 3155 3155 3157 3159 3158 3159 3160 3160 3160 3161 3162 3164 3166 3168 3170 3172 3174 3175 3177 3178 3180 3181 3183 3185 3186 3188 3189 3191 3193 3194 3195 3197 3198 3199 3200 3201 3203
3135 3138 3138 3138 3141 3142 3140 3145 3144 3146 3152 3150 3150 3152 3154 3156 3157 3158 3159 3159 3160 3160 3161 3162 3164 3166 3168 3170 3173 3175 3176 3178 3179 3181 3182 3184 3186 3188 3190 3191 3193 3194 3196 3197 3198 3200 3200 3202 3203
3130 3132 3134 3135 3136 3137 3137 3139 3141 3142 3146 3148 3147 3147 3151 3153 3156 3157 3157 3158 3160 3160 3161 3161 3162 3165 3167 3169 3171 3173 3175 3177 3179 3181 3182 3184 3185 3187 3189 3191 3193 3194 3196 3197 3198 3199 3200 3201 3202
3125 3127 3129 3130 3134 3133 3133 3133 3136 3141 3142 3145 3146 3145 3148 3151 3153 3154 3154 3156 3158 3160 3160 3161 3161 3162 3165 3167 3169 3171 3174 3176 3178 3180 3181 3183 3185 3187 3188 3190 3192 3194 3196 3197 3198 3199 3200 3200 3201
3121 3121 3123 3129 3128 3127 3128 3123 3127 3137 3137 3139 3143 3144 3144 3146 3147 3151 3153 3154 3157 3158 3159 3160 3160 3161 3163 3165 3167 3169 3171 3174 3175 3178 3180 3181 3183 3185 3187 3189 3191 3193 3194 3195 3196 3198 3199 3200 3200
3117 3116 3116 3121 3124 3126 3124 3110 3124 3132 3130 3132 3135 3139 3140 3140 3142 3145 3149 3151 3152 3154 3156 3158 3158 3160 3161 3162 3164 3166 3168 3170 3173 3175 3177 3179 3181 3183 3185 3187 3189 3190 3192 3193 3194 3195 3197 3198 3198
3113 3111 3111 3113 3118 3118 3119 3106 3110 3117 3121 3122 3127 3131 3133 3136 3137 3138 3141 3145 3148 3150 3152 3154 3156 3157 3159 3160 3161 3163 3165 3166 3169 3171 3173 3176 3178 3179 3181 3183 3186 3187 3188 3190 3191 3192 3193 3194 3195
3110 3108 3108 3110 3110 3112 3109 3097 3104 3109 3111 3114 3117 3121 3124 3127 3130 3134 3135 3136 3140 3143 3146 3148 3151 3154 3155 3156 3157 3158 3160 3162 3163 3166 3169 3171 3174 3176 3177 3179 3182 3183 3184 3186 3188 3189 3190 3191 3192
3109 3108 3105 3107 3108 3105 3102 3093 3096 3101 3102 3104 3108 3111 3115 3118 3123 3126 3129 3131 3132 3135 3138 3141 3143 3147 3150 3151 3152 3153 3155 3157 3159 3161 3164 3167 3168 3171 3173 3175 3177 3179 3181 3183 3184 3185 3186 3187 3188
3109 3106 3102 3099 3102 3103 3100 3084 3088 3090 3092 3094 3098 3103 3107 3109 3113 3115 3118 3121 3123 3126 3130 3134 3137 3139 3143 3145 3148 3149 3152 3153 3156 3158 3160 3162 3163 3165 3168 3171 3173 3175 3176 3178 3180 3181 3182 3183 3184
3106 3104 3100 3098 3097 3100 3094 3075 3080 3084 3087 3088 3090 3093 3098 3102 3102 3104 3107 3110 3115 3116 3120 3124 3129 3131 3135 3139 3141 3143 3144 3147 3147 3151 3154 3156 3158 3161 3163 3165 3167 3169 3171 3173 3175 3176 3177 3178 3179
3100 3101 3097 3095 3095 3095 3097 3072 3076 3077 3076 3082 3083 3086 3087 3089 3094 3094 3097 3100 3101 3103 3110 3113 3118 3122 3127 3130 3131 3134 3138 3141 3145 3148 3150 3152 3154 3155 3158 3160 3161 3164 3165 3167 3169 3170 3171 3172 3173
3101 3098 3095 3093 3093 3092 3091 3088 3076 3078 3077 3079 3081 3081 3081 3081 3081 3080 3082 3084 3085 3089 3095 3102 3108 3111 3117 3119 3123 3126 3129 3135 3140 3141 3144 3146 3149 3151 3152 3154 3157 3159 3160 3162 3163 3164 3165 3166 3166
3098 3096 3094 3091 3090 3086 3087 3089 3077 3077 3078 3076 3079 3078 3071 3071 3070 3071 3072 3073 3074 3076 3082 3088 3094 3098 3104 3109 3114 3117 3123 3127 3129 3133 3136 3139 3143 3145 3147 3149 3150 3152 3154 3156 3157 3158 3159 3160 3159
3097 3093 3092 3090 3087 3084 3083 3079 3078 3077 3077 3073 3071 3068 3065 3064 3062 3064 3064 3064 3066 3067 3073 3078 3082 3085 3092 3096 3102 3106 3112 3118 3121 3125 3128 3131 3133 3136 3141 3143 3145 3146 3148 3149 3150 3150 3151 3151 3150
3096 3097 3099 3100 3092 3085 3080 3072 3077 3075 3072 3068 3065 3062 3059 3059 3056 3056 3056 3055 3058 3059 3064 3069 3072 3076 3080 3085 3091 3097 3103 3107 3111 3116 3121 3123 3125 3127 3131 3133 3135 3137 3139 3140 3140 3140 3141 3141 3140
3097 3098 3098 3095 3092 3089 3077 3075 3071 3069 3068 3065 3064 3060 3057 3055 3054 3053 3051 3049 3050 3050 3053 3058 3062 3067 3071 3076 3081 3086 3092 3094 3100 3106 3110 3113 3118 3119 3120 3122 3124 3126 3127 3129 3130 3130 3131 3131 3131
3097 3098 3097 3095 3093 3088 3081 3081 3080 3070 3066 3064 3064 3063 3058 3055 3053 3050 3047 3045 3046 3046 3046 3047 3051 3056 3062 3065 3068 3071 3078 3085 3092 3094 3096 3098 3107 3109 3108 3110 3112 3114 3116 3118 3119 3120 3121 3120 3120
3097 3096 3096 3096 3095 3090 3084 3085 3082 3077 3071 3065 3062 3063 3062 3058 3054 3051 3046 3045 3044 3043 3041 3043 3045 3047 3050 3054 3058 3061 3066 3073 3078 3080 3083 3082 3090 3095 3094 3095 3098 3101 3104 3106 3107 3108 3109 3108 3108
3096 3096 3097 3097 3096 3093 3089 3084 3077 3076 3075 3071 3064 3063 3058 3056 3057 3052 3047 3044 3046 3043 3041 3040 3042 3043 3044 3046 3051 3053 3055 3059 3061 3061 3064 3062 3053 3060 3082 3082 3085 3088 3092 3095 3095 3096 3096 3095 3094